Johnson County (6A4)
Johnson County, TN
Field Elevation: 2240
Lat: 36°25.07N  Long: 81°49.51W
CTAF/Unicom Freq: 122.7000
   
    
Weather Advisories
11/26/2014 13:36 Z
Altimeter 30.00" Hg
Wind 340° @ 0 KT
Gusts --
Visibility 1 1/4 SM
Ceiling SCT005 BKN015 OVC019
Temperature 1° C (34° F)
Dewpoint 0° C (32° F)
Relative Humidity 95%
Density Altitude --
Condensation Altitude --
  Wind and Runways
Indicated Runway = 6
History
 
 
More Info
All DigiWx sites map
 
Johnson County Airport FBO
 
Airport IQ 5010
(M01) General Dewitt Spain Airport
(3M3) Collegedale Muni
 
about DigiWx
 
FAA Disclaimer: The data displayed is for advisory purposes only and is not to be used for flight planning or operations. For official data, please call (not available) to hear the current automated AWOS voice message.
  METAR 6A4 261336Z AUTO 34000KT 1 1/4SM SCT005 BKN015 OVC019 01/00 A3000